Regional Weather Roundup
Issued by NWS Upton, NY

Current Version | Previous Version | Graphics & Text | Print | Product List | Glossary On
Versions: 1 2 3 4 5 6 7 8 9 10 11 12 13 14 15 16 17 18 19 20 21 22 23 24 25 26 27 28 29 30 31 32 33 34 35 36 37 38 39 40 41 42 43 44 45 46 47 48 49 50
000
ASUS41 KOKX 061404
RWROKX

REGIONAL WEATHER ROUNDUP
NATIONAL WEATHER SERVICE NEW YORK NY
1000 AM EDT FRI MAY 06 2016

NOTE: "FAIR" INDICATES FEW OR NO CLOUDS BELOW 12,000 FEET WITH NO
SIGNIFICANT WEATHER AND/OR OBSTRUCTIONS TO VISIBILITY.

NYZ071-072-176-178-NJZ106-104-061500-
NEW YORK CITY METRO AREA


CITY           SKY/WX    TMP DP  RH WIND       PRES   REMARKS
CENTRAL PARK   HVY RAIN  49  45  86 NE12G21   29.72S FOG
LAGUARDIA APRT LGT RAIN  50  48  93 NE21G31   29.70S FOG
KENNEDY INTL   LGT RAIN  49  46  90 E12       29.71R
NEWARK/LIBERTY HVY RAIN  50  48  93 NE12      29.70R FOG
BRNX BOT. GARD   N/A     48  46  93 E7        29.68F
TETERBORO      RAIN      50  46  86 NE7       29.68F FOG
$$

NYZ177-179-078>081-061500-
LONG ISLAND NEW YORK

CITY           SKY/WX    TMP DP  RH WIND       PRES   REMARKS
FARMINGDALE    LGT RAIN  48  45  89 E14G24    29.70R
ISLIP          RAIN      48  45  89 NE16      29.70R FOG
SHIRLEY        RAIN      48  46  93 NE9       29.72R FOG
RIVERHEAD        N/A     48  46  93 SW13      29.73R
WESTHAMPTON    LGT RAIN  44  44 100 E9G20     29.73S FOG
EAST HAMPTON   CLOUDY    48  44  84 NE13G26   29.74R
MONTAUK POINT  NOT AVBL
$$

NYZ052-065-067-061500-
HUDSON VALLEY

CITY           SKY/WX    TMP DP  RH WIND       PRES   REMARKS
WHITE PLAINS   DRIZZLE   49  46  90 NE9       29.70S
NEWBURGH       NOT AVBL
MONTGOMERY     LGT RAIN  50  47  89 NE14      29.72S
POUGHKEEPSIE   RAIN      52  48  86 N9        29.74F FOG
ALBANY         CLOUDY    57  41  55 N14       29.80R
$$

NJZ001-105-106-008-010-013-015-019>022-104-061500-
NEW JERSEY

CITY           SKY/WX    TMP DP  RH WIND       PRES   REMARKS
NEWARK/LIBERTY HVY RAIN  50  48  93 NE12      29.70R FOG
TETERBORO      RAIN      50  46  86 NE7       29.68F FOG
CALDWELL       LGT RAIN  50  47  89 NE10G17   29.69F
MORRISTOWN     LGT RAIN  50  48  93 NE12      29.68F FOG
SOMERVILLE     LGT RAIN  51  47  86 VRB6      29.66F
SUSSEX         LGT RAIN  50  46  86 N16G25    29.71F FOG
ANDOVER          N/A     50  47  89 NE10G17   29.69F
TRENTON        LGT RAIN  49  47  93 E3        29.69R FOG
MILLVILLE      LGT RAIN  49  47  93 NE8       29.65S FOG
ATLANTIC CITY  LGT RAIN  49  47  93 NE13      29.63F FOG
WRIGHTSTOWN    LGT RAIN  48  48 100 NE9       29.66R FOG
TOMS RIVER     CLOUDY    46  43  87 NE17      29.68S
BELMAR         LGT RAIN  47  46  97 NE13G21   29.70R FOG
$$

PAZ047>061-062-071-061500-
EASTERN PENNSYLVANIA

CITY           SKY/WX    TMP DP  RH WIND       PRES   REMARKS
PHILADELPHIA   LGT RAIN  50  46  86 NE12G21   29.68S FOG
ALLENTOWN      RAIN      52  48  86 NE9       29.67F FOG
SCRANTON       LGT RAIN  51  46  83 NE8       29.71S
$$

CTZ002-004>006-009-010-012-RIZ004-006-007-MAZ004-011-015-061500-
SOUTHERN NEW ENGLAND
 IN CT

CITY           SKY/WX    TMP DP  RH WIND       PRES   REMARKS
BRADLEY INTL   LGT RAIN  54  45  71 NE14      29.77R
HARTFORD       CLOUDY    54  44  69 E8G18     29.77R
DANBURY        LGT RAIN  49  46  90 NE13      29.73F
WTRBRY/OXFORD  LGT RAIN  48  43  81 NE14G21   29.73F FOG
BRIDGEPORT     LGT RAIN  51  47  86 NE14      29.73R
MERIDEN        LGT RAIN  52  45  77 N9        29.74S
NEW HAVEN      CLOUDY    51  47  86 NE10      29.73S
CHESTER        LGT RAIN  50  45  81 NE14G22   29.74R
GROTON         CLOUDY    54  46  74 NE17      29.75R
WILLIMANTIC    CLOUDY    53  43  68 NE12      29.78S

 IN RI

CITY           SKY/WX    TMP DP  RH WIND       PRES   REMARKS
PROVIDENCE     CLOUDY    52  44  74 NE16      29.80S
BLOCK ISLAND   CLOUDY    49  45  86 NE18G24   29.77R
WESTERLY       CLOUDY    53  43  68 NE13G23   29.77R

 IN MA

CITY           SKY/WX    TMP DP  RH WIND       PRES   REMARKS
BOSTON         CLOUDY    53  44  71 NE14      29.82R
WORCESTER      CLOUDY    50  42  74 NE10      29.79R
WESTFIELD      CLOUDY    54  44  69 NE8       29.78R
PROVINCETOWN   CLOUDY    49  46  90 NE10      29.83R
NANTUCKET      CLOUDY    51  45  79 NE22      29.79S
$$

ANZ330-335-338-340-345-350-353-355-061500-
COASTAL MARINE OBSERVATIONS


STATION/POSITION TIME  SKY/WX   TEMP    WIND        PRES    VSBY  WAVE
                                AIR SEA DIR/SP/G                  HT/PER
                 (UTC)          (F)     (DEG/KT/KT) (MB)    (MI)  (FT/S)
NY HARB ENTRANCE 1250            48 50   50/ 21/ 25 1003.5          5/ 8
20S FIRE ISLAND  1250            47 48   70/ 25/ 31 1003.5          7/ 7
GREAT SOUTH BAY  1300            49 52   60/ 14/ 19   N/A
23 SSW MONTAUK P 1250            47 46   70/ 21/ 27 1005.4          6/ 6
15 E BARNEGAT LI 1322               48                N/A           8/ 7
HUDSON CANYON    1250            50 49              1002.6          8/ 8
KINGS POINT      1300            48 53              1005.3
EXECUTION ROCKS  NOT AVBL
CENTRAL LI SOUND 1300            48      80/ 16/ 19   N/A           2/ 3
EASTERN LI SOUND 1300            49 47   50/ 16/ 19   N/A
ROBBINS REEF     1312            49      50/ 24/ 31 1004.2
$$


>>>>>>>>>>>>>>>>>>>>>>>>>>>> KEY <<<<<<<<<<<<<<<<<<<<<<<<<<<
>                                                          <
>     SKY/WX - SKY CONDITION/PRESENT WEATHER               <
>     TMP    - TEMPERATURE IN FAHRENHEIT                   <
>     DP     - DEWPOINT IN FAHRENHEIT                      <
>     RH     - RELATIVE HUMIDITY IN PERCENT                <
>     WIND   - DIRECTION AND SPEED IN MPH                  <
>     PRES   - MEAN SEA LEVEL PRESSURE IN INCHES OF HG     <
>     WCI    - WIND CHILL INDEX                            <
>     VSB    - VISIBILITY IN MILES                         <
>     HX     - HEAT INDEX                                  <
>     TC     - TEMPERATURE IN CELSIUS                      <
>     VRB    - VARIABLE WIND DIRECTION                     <
>                                                          <
>>>>>>>>>>>>>>>>>>>>>>>>>>>> KEY <<<<<<<<<<<<<<<<<<<<<<<<<<<





USA.gov is the U.S. government's official web portal to all federal, state and local government web resources and services.